Station GPXA2 - Grave Point, AK Image indicating link to RSS feed of recent meteorological observations for station GPXA2


Conditions at GPXA2 as of
(4:33 pm AKDT on 04/15/2024)
0033 GMT on 04/16/2024:
     

Click on the graph icon in the table below to see a time series plot of the last five days of that observation.

5-day plot - Wind Direction Wind Direction (WDIR):NNW ( 340 deg true )
5-day plot - Wind Speed Wind Speed (WSPD): 15.9 kts
5-day plot - Wind Gust Wind Gust (GST): 21.0 kts
5-day plot - Atmospheric Pressure Atmospheric Pressure (PRES):30.31 in
5-day plot - Air Temperature Air Temperature (ATMP): 45.5 °F
5-day plot - Dew Point Dew Point (DEWP): 29.7 °F
5-day plot - Wind Chill Wind Chill (CHILL): 38.1 °F
5-day plot - Wind Speed at 10 Meters Wind Speed at 10 meters (WSPD10M): 17.5 kts
5-day plot - Wind Speed at 20 Meters Wind Speed at 20 meters (WSPD20M): 19.4 kts
5-day plot -  Wind Speed, Wind Gust and Atmospheric Pressure Combined plot of Wind Speed, Gust, and Air Pressure
Previous observations
TIME
(AKDT)
5-day plot - Wind Direction
WDIR
 
5-day plot - Wind Speed
WSPD
kts
5-day plot - Wind Gust
GST
kts
5-day plot - Wave Height
WVHT
ft
5-day plot - Dominant Wave Period
DPD
sec
5-day plot - Average Wave Period
APD
sec
5-day plot - Mean Wave Direction
MWD
 
5-day plot - Atmospheric Pressure
PRES
in
5-day plot - Pressure Tendency
PTDY
in
5-day plot - Air Temperature
ATMP
°F
5-day plot - Water Temperature
WTMP
°F
5-day plot - Dew Point
DEWP
°F
5-day plot - Salinity
SAL
psu
5-day plot - Visibility
VIS
nmi
5-day plot - Tide (above MLLW)
TIDE
ft
2024-04-15 04:23 pmNNW 15.9 21.0----30.31- 45.3- 30.4---
2024-04-15 04:13 pmNNW 15.0 20.0----30.31- 44.6- 32.0---
2024-04-15 03:53 pmNNW 15.0 19.0----30.31- 45.1- 30.2---
2024-04-15 03:43 pmNNW 14.0 19.0----30.32- 45.5- 28.4---
2024-04-15 03:33 pmNNW 15.9 22.9----30.31- 45.3- 28.6---
2024-04-15 03:23 pmNNW 15.9 21.0----30.31- 45.1- 29.5---
2024-04-15 03:13 pmNNW 17.1 21.0----30.31- 45.0- 29.8---
2024-04-15 03:03 pmNNW 17.1 22.0----30.31- 44.2- 31.8---
2024-04-15 02:53 pmNNW 17.1 21.0----30.31- 45.0- 28.9---
2024-04-15 02:43 pmNNW 15.9 22.0----30.30- 45.3- 27.1---
2024-04-15 02:33 pmNNW 17.1 21.0----30.30- 45.1- 27.1---
2024-04-15 02:13 pmNNW 17.1 24.1----30.30- 44.6- 29.5---
2024-04-15 02:03 pmNNW 18.1 22.9----30.30- 44.6- 28.6---
2024-04-15 01:53 pmNNW 17.1 24.1----30.30- 45.1- 26.1---
2024-04-15 01:43 pmNNW 15.9 21.0----30.30- 44.4- 28.6---
2024-04-15 01:33 pmNNW 17.1 24.1----30.30- 44.2- 28.2---
2024-04-15 01:23 pmNNW 15.9 21.0----30.30- 43.7- 30.0---
2024-04-15 01:13 pmNNW 17.1 21.0----30.30- 43.3- 31.3---
2024-04-15 01:03 pmNNW 18.1 22.9----30.29- 43.3- 31.3---
2024-04-15 12:53 pmNNW 18.1 26.0----30.29- 43.9- 28.8---
2024-04-15 12:43 pmNNW 18.1 26.0----30.29- 43.5- 29.5---
2024-04-15 12:33 pmNNW 15.9 22.0----30.29- 43.9- 27.9---
2024-04-15 12:23 pmNNW 15.9 27.0----30.28- 44.1- 26.8---
2024-04-15 12:13 pmNNW 17.1 26.0----30.28- 43.9- 26.8---
2024-04-15 12:03 pmNNW 17.1 26.0----30.28- 43.3- 28.0---
2024-04-15 11:53 amNNW 15.9 22.0----30.27- 43.0- 29.3---
2024-04-15 11:43 amNNW 17.1 25.1----30.27- 42.6- 29.7---
2024-04-15 11:33 amNNW 15.9 25.1----30.27- 43.0- 28.0---
2024-04-15 11:23 amNNW 15.9 22.9----30.27- 42.6- 28.9---
2024-04-15 11:13 amNNW 13.0 21.0----30.27- 42.3- 29.3---
2024-04-15 11:03 amNNW 11.1 22.0----30.27- 42.4- 28.8---
2024-04-15 10:53 amNNW 9.9 15.9----30.27- 42.4- 28.0---
2024-04-15 10:43 amNNW 11.1 20.0----30.27- 42.3- 28.2---
2024-04-15 10:33 amNNW 11.1 21.0----30.26- 42.3- 27.1---
2024-04-15 10:23 amNNW 9.9 19.0----30.26- 41.7- 28.6---
2024-04-15 10:13 amNNW 8.9 15.9----30.26- 41.4- 28.6---
2024-04-15 10:03 amNNW 8.9 17.1----30.26- 40.6- 29.8---
2024-04-15 09:53 amNNW 13.0 22.0----30.26- 39.6- 32.2---
2024-04-15 09:43 amNNW 12.0 24.1----30.25- 39.6- 30.2---
2024-04-15 09:33 amNNW 8.9 20.0----30.25- 39.2- 31.3---
2024-04-15 09:23 amNNW 11.1 19.0----30.25- 38.5- 32.0---
2024-04-15 09:13 amNNW 12.0 22.0----30.24- 38.3- 30.9---
2024-04-15 09:03 amNNW 11.1 19.0----30.24- 38.3- 30.7---
2024-04-15 08:53 amNNW 11.1 22.0----30.24- 38.3- 30.9---
2024-04-15 08:43 amNNW 7.0 18.1----30.24- 38.3- 31.3---
2024-04-15 08:33 amNNW 7.0 17.1----30.23- 38.1- 31.8---
2024-04-15 08:23 amNNW 11.1 20.0----30.23- 38.3- 31.3---
2024-04-15 08:13 amNNW 5.1 13.0----30.23- 37.9- 31.5---
2024-04-15 08:03 am N 2.9 8.9----30.22- 38.1- 31.6---
2024-04-15 07:53 amESE 1.9 5.1----30.22- 37.6- 31.8---
2024-04-15 07:43 am N 2.9 11.1----30.22- 37.6- 31.5---
2024-04-15 07:33 amNNW 5.1 18.1----30.22- 37.6- 31.1---
2024-04-15 07:23 amNNW 4.1 9.9----30.21- 37.6- 30.6---
2024-04-15 07:13 amNNW 4.1 12.0----30.21- 37.4- 30.9---
2024-04-15 07:03 amNNW 8.0 15.0----30.20- 37.8- 30.7---
2024-04-15 06:53 amNNW 4.1 11.1----30.20- 37.9- 30.0---
2024-04-15 06:43 amNNW 4.1 11.1----30.20- 37.8- 29.7---
2024-04-15 06:33 am N 4.1 14.0----30.19- 37.6- 29.7---
2024-04-15 06:23 amNNW 4.1 12.0----30.19- 37.6- 29.3---
2024-04-15 06:13 am N 4.1 8.9----30.19- 37.2- 29.7---
2024-04-15 06:03 amNNW 4.1 11.1----30.18- 37.4- 29.7---
2024-04-15 05:53 amNNW 6.0 13.0----30.17- 37.6- 29.5---
2024-04-15 05:43 amNNW 2.9 9.9----30.17- 37.2- 29.5---
2024-04-15 05:33 am N 2.9 9.9----30.16- 37.4- 29.5---
2024-04-15 05:23 am NE 1.9 6.0----30.16- 36.9- 29.3---
2024-04-15 05:13 amESE 1.9 5.1----30.16- 36.9- 29.8---
2024-04-15 05:03 am E 1.9 4.1----30.16- 36.5- 30.0---
2024-04-15 04:53 am NE 1.0 4.1----30.15- 36.3- 30.4---
2024-04-15 04:43 am NE 1.9 4.1----30.15- 35.8- 30.7---
2024-04-15 04:33 am E 1.9 4.1----30.15- 35.4- 30.9---
2024-04-15 04:23 amESE 1.9 4.1----30.14- 35.6- 31.6---
2024-04-15 04:13 amENE 1.9 5.1----30.14- 35.4- 31.6---
2024-04-15 04:03 am E 2.9 5.1----30.14- 34.9- 31.8---
2024-04-15 03:53 am E 1.9 5.1----30.14- 35.2- 32.0---
2024-04-15 03:43 am E 1.9 4.1----30.14- 35.6- 32.5---
2024-04-15 03:33 am NE 1.9 4.1----30.13- 35.8- 32.7---
2024-04-15 03:23 am N 1.9 5.1----30.13- 36.0- 32.7---
2024-04-15 03:13 am N 1.9 6.0----30.13- 35.8- 32.9---
2024-04-15 03:03 amNNW 2.9 6.0----30.13- 36.0- 32.7---
2024-04-15 02:53 am N 2.9 6.0----30.12- 36.0- 32.9---
2024-04-15 02:43 am N 4.1 7.0----30.12- 36.0- 33.3---
2024-04-15 02:33 am N 4.1 8.9----30.11- 36.0- 33.3---
2024-04-15 02:23 amNNW 2.9 7.0----30.11- 36.0- 33.3---
2024-04-15 02:13 am N 2.9 5.1----30.11- 36.1- 33.3---
2024-04-15 02:03 am N 1.9 6.0----30.10- 36.1- 33.4---
2024-04-15 01:53 am N 2.9 8.0----30.10- 36.1- 33.4---
2024-04-15 01:43 am N 2.9 8.0----30.09- 36.1- 33.8---
2024-04-15 01:33 am N 1.9 6.0----30.09- 36.3- 33.8---
2024-04-15 01:23 am N 2.9 6.0----30.09- 36.3- 33.8---
2024-04-15 01:03 amNNW 4.1 7.0----30.08- 36.5- 34.2---
2024-04-15 12:53 am N 2.9 6.0----30.08- 36.5- 34.3---
2024-04-15 12:43 am N 2.9 6.0----30.07- 36.7- 34.5---
2024-04-15 12:33 am N 1.9 4.1----30.07- 36.7- 34.5---
2024-04-15 12:23 am N 1.9 5.1----30.07- 36.7- 34.5---
2024-04-15 12:14 am N 1.9 5.1----30.06- 36.7- 34.5---
2024-04-15 12:03 am N 1.9 4.1----30.06- 36.7- 34.5---
2024-04-14 11:53 pm N 1.9 4.1----30.06- 36.7- 34.7---
2024-04-14 11:43 pm NE 1.0 1.9----30.06- 36.5- 34.3---
2024-04-14 11:33 pm NE 1.9 1.9----30.05- 36.7- 34.5---
2024-04-14 11:23 pm NE 1.0 1.9----30.05- 36.7- 34.3---
2024-04-14 11:13 pm- 0.0 1.9----30.05- 37.0- 34.2---
2024-04-14 11:03 pm NE 1.0 1.9----30.05- 37.4- 34.2---
2024-04-14 10:53 pm NE 1.0 1.9----30.04- 37.8- 34.2---
2024-04-14 10:43 pm N 1.0 4.1----30.04- 38.1- 34.3---
2024-04-14 10:33 pm N 1.9 5.1----30.03- 38.3- 34.0---
2024-04-14 10:23 pm N 1.9 4.1----30.03- 38.3- 33.6---
2024-04-14 10:13 pmNNE 1.0 2.9----30.03- 38.3- 33.4---
2024-04-14 10:03 pmNNE 1.9 2.9----30.03- 38.5- 33.4---
2024-04-14 09:53 pm NE 1.0 1.9----30.02- 38.7- 33.3---
2024-04-14 09:43 pm NE 1.9 2.9----30.02- 38.8- 33.4---
2024-04-14 09:33 pm NE 1.9 4.1----30.02- 39.2- 33.3---
2024-04-14 09:23 pm NE 1.9 5.1----30.02- 39.4- 33.1---
2024-04-14 09:13 pmENE 1.9 4.1----30.01- 39.4- 33.1---
2024-04-14 09:03 pmENE 1.9 2.9----30.01- 39.0- 33.3---
2024-04-14 08:53 pmENE 1.9 2.9----30.01- 39.2- 33.4---
2024-04-14 08:43 pmENE 1.9 2.9----30.01- 39.4- 33.6---
2024-04-14 08:33 pm NE 1.0 2.9----30.00- 39.7- 33.8---
2024-04-14 08:24 pmENE 1.9 2.9----30.00- 40.1- 34.0---
2024-04-14 08:13 pmENE 1.0 1.9----30.00- 40.6- 34.3---
2024-04-14 08:03 pm E 1.0 4.1----29.99- 41.0- 34.7---
2024-04-14 07:53 pmNNW 5.1 8.9----29.99- 41.4- 35.2---
2024-04-14 07:43 pmNNW 5.1 8.0----29.99- 41.9- 34.9---
2024-04-14 07:33 pmNNW 5.1 8.9----29.98- 42.1- 34.7---
2024-04-14 07:23 pmNNW 5.1 11.1----29.98- 41.9- 34.7---
2024-04-14 07:13 pmNNW 8.0 12.0----29.98- 41.7- 34.2---
2024-04-14 07:03 pmNNW 8.0 11.1----29.98- 41.2- 34.9---
2024-04-14 06:53 pmNNW 8.0 11.1----29.98- 41.5- 34.3---
2024-04-14 06:43 pmNNW 8.9 12.0----29.97- 41.4- 34.3---
2024-04-14 06:33 pmNNW 9.9 14.0----29.97- 41.5- 34.0---
2024-04-14 06:23 pmNNW 8.9 11.1----29.97- 41.2- 34.5---
2024-04-14 06:13 pmNNW 8.0 9.9----29.97- 40.8- 34.7---
2024-04-14 06:03 pmNNW 8.0 12.0----29.97- 41.2- 34.5---
2024-04-14 05:53 pmNNW 8.9 12.0----29.97- 41.2- 34.5---
2024-04-14 05:43 pmNNW 9.9 14.0----29.96- 41.4- 34.5---
2024-04-14 05:33 pmNNW 9.9 12.0----29.96- 41.0- 34.2---
2024-04-14 05:23 pmNNW 8.9 13.0----29.96- 40.6- 34.7---
2024-04-14 05:13 pmNNW 8.9 12.0----29.96- 40.6- 35.4---
2024-04-14 05:03 pmNNW 8.9 11.1----29.96- 40.6- 35.2---
2024-04-14 04:53 pmNNW 8.0 9.9----29.96- 40.5- 34.9---
2024-04-14 04:43 pmNNW 8.0 9.9----29.96- 40.5- 34.7---
2024-04-14 04:33 pmNNW 8.0 9.9----29.96- 40.3- 34.3---
2024-04-14 04:23 pmNNW 7.0 9.9----29.96- 40.1- 34.5---
2024-04-14 04:13 pmNNW 7.0 9.9----29.96- 39.9- 35.1---
2024-04-14 03:53 pmNNW 8.9 11.1----29.96- 39.6- 35.6---